Location: Mainz-Finthen
(49.9906°N, 8.1713°E)
Time: 05:36:25
(UTC+00:00)

BEESAT - Pass Details

Date: 13 December 2021
Orbit: 699 x 708 km, 98.6° (Epoch: 18 January)

Event Time Altitude Azimuth Distance (km) Brightness Sun altitude
Rises 04:48:04 0° 121° (ESE) 3,095 ? -22.8°
Reaches altitude 10° 04:50:48 10° 105° (ESE) 2,182 ? -22.3°
Maximum altitude 04:54:16 20° 58° (ENE) 1,597 ? -21.8°
Drops below altitude 10° 04:57:45 10° 11° (NNE) 2,194 ? -21.2°
Sets 05:00:30 0° 356° (N) 3,118 ? -20.8°
